WetterOnline ( http://www.wetteronline.de )

Wetter aktuell Bonn

Aktuelles Wetter: Roleber (162m)

6-stündlich | Neueste Meldungen
Ortszeit Temperatur Wetter
Di, 24.04. 2:00 10.3° C leicht bewölkt
Mo, 23.04. 20:00 16.2° C leicht bewölkt
Mo, 23.04. 14:00 17.3° C wolkig
Mo, 23.04. 8:00 15.3° C bewölkt
Mo, 23.04. 2:00 18.1° C bedeckt
So, 22.04. 20:00 23.9° C bedeckt
So, 22.04. 14:00 26.5° C leicht bewölkt
So, 22.04. 8:00 16.4° C wolkig
Ortszeit Temperatur Wetter
Di, 24.04. 3:00 9.8° C wolkig
Di, 24.04. 2:50 9.8° C wolkig
Di, 24.04. 2:40 9.7° C leicht bewölkt
Di, 24.04. 2:30 10.0° C wolkig
Di, 24.04. 2:20 10.0° C bedeckt
Di, 24.04. 2:10 10.4° C bedeckt
Di, 24.04. 2:00 10.3° C leicht bewölkt
Di, 24.04. 1:30 10.8° C wolkig
Di, 24.04. 1:00 11.7° C wolkig
Di, 24.04. 0:30 12.6° C wolkig
Di, 24.04. 0:00 12.5° C leicht bewölkt
Ortszeit Relative Feuchte Sichtweite
Di, 24.04. 2:00 79% 40 km
Mo, 23.04. 20:00 53% 40 km
Mo, 23.04. 14:00 58% 18 km
Mo, 23.04. 8:00 86% 22 km
Mo, 23.04. 2:00 68% 30 km
So, 22.04. 20:00 38% 30 km
So, 22.04. 14:00 41% 30 km
So, 22.04. 8:00 74% 10 km
Ortszeit Relative Feuchte Sichtweite
Di, 24.04. 3:00 80% 40 km
Di, 24.04. 2:50 80% -
Di, 24.04. 2:40 80% -
Di, 24.04. 2:30 80% 45 km
Di, 24.04. 2:20 80% -
Di, 24.04. 2:10 77% -
Di, 24.04. 2:00 79% 40 km
Di, 24.04. 1:30 76% 40 km
Di, 24.04. 1:00 72% 40 km
Di, 24.04. 0:30 67% 45 km
Di, 24.04. 0:00 70% 40 km
Ortszeit Niederschlagsmenge Niederschlagsart
Di, 24.04. 2:00 0.0 l/m2 in 6 Std. -
Mo, 23.04. 20:00 0.1 l/m2 in 12 Std. Sprühregen
Mo, 23.04. 14:00 0.0 l/m2 in 6 Std. -
Mo, 23.04. 8:00 0.2 l/m2 in 12 Std. Regen
Mo, 23.04. 2:00 0.0 l/m2 in 6 Std. -
So, 22.04. 20:00 0.0 l/m2 in 12 Std. -
So, 22.04. 14:00 0.0 l/m2 in 6 Std. -
So, 22.04. 8:00 0.0 l/m2 in 12 Std. -
Ortszeit Niederschlagsmenge Niederschlagsart
Di, 24.04. 3:00 0.0 l/m2 in 1 Std. -
Di, 24.04. 2:50 keine Meldung -
Di, 24.04. 2:40 keine Meldung -
Di, 24.04. 2:30 0.0 l/m2 in 1 Std. -
Di, 24.04. 2:20 keine Meldung -
Di, 24.04. 2:10 keine Meldung -
Di, 24.04. 2:00 0.0 l/m2 in 1 Std. -
Di, 24.04. 1:30 0.0 l/m2 in 1 Std. -
Di, 24.04. 1:00 0.0 l/m2 in 1 Std. -
Di, 24.04. 0:30 0.0 l/m2 in 1 Std. -
Di, 24.04. 0:00 0.0 l/m2 in 1 Std. -
Ortszeit Stärke Spitze Richtung
km/h Bft. km/h Grad Sektor
Di, 24.04. 2:00 6 1 26 280° W
Mo, 23.04. 20:00 14 3 40 290° W
Mo, 23.04. 14:00 14 3 29 290° W
Mo, 23.04. 8:00 6 1 44 310° NW
Mo, 23.04. 2:00 11 2 32 200° S
So, 22.04. 20:00 18 3 43 230° SW
So, 22.04. 14:00 14 3 25 170° S
So, 22.04. 8:00 11 2 18 160° S
Ortszeit Stärke Spitze Richtung
km/h Bft. km/h Grad Sektor
Di, 24.04. 3:00 6 1 20 270° W
Di, 24.04. 2:50 6 1 - 270° W
Di, 24.04. 2:40 4 1 - 250° W
Di, 24.04. 2:30 4 1 22 240° SW
Di, 24.04. 2:20 4 1 - 240° SW
Di, 24.04. 2:10 7 2 - 280° W
Di, 24.04. 2:00 6 1 13 280° W
Di, 24.04. 1:30 4 1 14 270° W
Di, 24.04. 1:00 7 2 25 280° W
Di, 24.04. 0:30 13 3 26 280° W
Di, 24.04. 0:00 7 2 22 270° W
Ortszeit Untergrenze Bedeckung Gattung
total tief tief mittel hoch
Di, 24.04. 2:00 2700 m 3/8 - - - -
Mo, 23.04. 20:00 1800 m 5/8 2/8 - - -
Mo, 23.04. 14:00 1020 m 7/8 2/8 - - -
Mo, 23.04. 8:00 1500 m 8/8 5/8 - - -
Mo, 23.04. 2:00 3000 m 8/8 8/8 - - -
So, 22.04. 20:00 3900 m 8/8 8/8 - - -
So, 22.04. 14:00 2100 m 4/8 4/8 - - -
So, 22.04. 8:00 9000 m 8/8 0/8 - - -
Ortszeit Bedeckungsgrad in Achtel und Wolkenuntergrenze
Di, 24.04. 3:00 2(900m) 6(7800m) 6(9000m)
Di, 24.04. 2:50 2(900m) 6(7800m) 6(9000m)
Di, 24.04. 2:40 2(2400m) 5(7800m)
Di, 24.04. 2:30 3(2400m) 9 9
Di, 24.04. 2:20 9 9 9
Di, 24.04. 2:10 9 9 9
Di, 24.04. 2:00 3(2700m) 9 9
Di, 24.04. 1:30 7(8400m) 7(9000m) 6(9000m)
Di, 24.04. 1:00 1(8100m) 7(9000m) 7(9000m)
Di, 24.04. 0:30 8(8400m) 8(9000m)
Di, 24.04. 0:00 1(3000m) 5(8400m) 6(9000m)
Ortszeit Luftdruck NN (hPa) Tendenz (hPa in 3 Std.)
Di, 24.04. 2:00 1019 + 0,8
Mo, 23.04. 20:00 1016 + 0,9
Mo, 23.04. 14:00 1016 + 0,9
Mo, 23.04. 8:00 1014 + 0,9
Mo, 23.04. 2:00 1012 + 0,1
So, 22.04. 20:00 1010 + 1,0
So, 22.04. 14:00 1011 - 2,4
So, 22.04. 8:00 1014 - 1,0
Ortszeit Luftdruck NN (hPa) Tendenz (hPa in 3 Std.)
Di, 24.04. 3:00 1018 + 0,4
Di, 24.04. 2:50 1018 keine Meldung
Di, 24.04. 2:40 1018 keine Meldung
Di, 24.04. 2:30 1019 + 0,7
Di, 24.04. 2:20 1019 keine Meldung
Di, 24.04. 2:10 1019 keine Meldung
Di, 24.04. 2:00 1019 + 0,8
Di, 24.04. 1:30 1018 + 0,8
Di, 24.04. 1:00 1018 + 0,8
Di, 24.04. 0:30 1018 + 0,9
Di, 24.04. 0:00 1018 + 1,1
Ortszeit Schneehöhe (cm)
Di, 24.04. 2:00 0
Mo, 23.04. 20:00 0
Mo, 23.04. 14:00 0
Mo, 23.04. 8:00 0
Mo, 23.04. 2:00 0
So, 22.04. 20:00 0
So, 22.04. 14:00 0
So, 22.04. 8:00 0
Ortszeit Schneehöhe (cm)
Di, 24.04. 3:00 0
Di, 24.04. 2:50 0
Di, 24.04. 2:40 0
Di, 24.04. 2:30 0
Di, 24.04. 2:20 0
Di, 24.04. 2:10 0
Di, 24.04. 2:00 0
Di, 24.04. 1:30 0
Di, 24.04. 1:00 0
Di, 24.04. 0:30 0
Di, 24.04. 0:00 0
Link zu dieser Seite / Seite empfehlen

Das Wetter in ...